Tracking 29892 objects as of 21-Nov-2024
HD Live streaming from Space Station
objects crossing your sky now

DELTA 2 R/B

Track DELTA 2 R/B now!
10-day predictions


NORAD ID: 20763
Int'l Code: 1990-074B
Perigee: 459.2 km
Apogee: 957.4 km
Inclination: 24.8 °
Period: 98.8 minutes
Semi major axis: 7079 km
RCS: 10.1612 m2 (large)
Launch date: August 18, 1990
Source: United States (US)
Launch site: AIR FORCE EASTERN TEST RANGE (AFETR)

Note: This is a ROCKET BODY
Your satellite tracking list
Your tracking list is empty




NASA's NSSDC Master Catalog

Two Line Element Set (TLE):
1 20763U 90074B   24326.14383027  .00006379  00000-0  54562-3 0  9993
2 20763  24.7600 331.6098 0351872  45.3207 317.5423 14.57533335793661
Source of the keplerian elements: AFSPC